FALCON 9 R/B

Last updated on Aug. 8, 2020, 12:02 a.m. UTC

1 45921U 20048B   20219.27176513  .00006233  00000-0  12995-2 0  9993
2 45921  27.5812  90.0128 7742601 185.4614 153.1731  1.73894336   290

Satellite is not in orbit.